• In Belarus
  • List of Countries
  • For 7 days
  • Water Temperature
  • Satellite Maps
  • Weather Map
  • Weather Widgets
  • user-avatar
    Login

    Hourly Weather Kerns

    Today, 17 July, Tuesday

    Time Temperature Precipitation Wind Pressure Humidity
    00:00 +20°C° 0 mm 3 mps 760 mmHg 95%
    01:00 +19°C° 0 mm 2 mps 760 mmHg 95%
    02:00 +19°C° 0 mm 3 mps 760 mmHg 93%
    03:00 +19°C° 0 mm 3 mps 760 mmHg 90%
    04:00 +18°C° 0 mm 3 mps 760 mmHg 86%
    05:00 +18°C° 0 mm 3 mps 760 mmHg 85%
    06:00 +18°C° 0 mm 3 mps 760 mmHg 83%
    07:00 +18°C° 0 mm 3 mps 761 mmHg 82%
    08:00 +20°C° 0 mm 4 mps 761 mmHg 76%
    09:00 +23°C° 0 mm 4 mps 761 mmHg 69%
    10:00 +26°C° 0 mm 5 mps 761 mmHg 63%
    11:00 +27°C° 0 mm 5 mps 761 mmHg 61%
    12:00 +28°C° 0 mm 5 mps 761 mmHg 60%
    13:00 +29°C° 0 mm 5 mps 760 mmHg 59%
    14:00 +28°C° 0 mm 5 mps 760 mmHg 62%
    15:00 +28°C° 0 mm 5 mps 760 mmHg 65%
    16:00 +27°C° 0 mm 5 mps 760 mmHg 68%
    17:00 +26°C° 0 mm 5 mps 760 mmHg 76%
    18:00 +23°C° 0 mm 4 mps 760 mmHg 84%
    19:00 +21°C° 0 mm 4 mps 761 mmHg 93%
    20:00 +21°C° 0 mm 4 mps 761 mmHg 93%
    21:00 +21°C° 0 mm 4 mps 761 mmHg 94%
    22:00 +20°C° 0 mm 4 mps 762 mmHg 95%
    23:00 +20°C° 0 mm 4 mps 762 mmHg 96%

    Tomorrow, 18 July, Wednesday

    Time Temperature Precipitation Wind Pressure Humidity
    00:00 +21°C° 0 mm 4 mps 762 mmHg 96%
    01:00 +21°C° 0 mm 4 mps 761 mmHg 96%
    02:00 +21°C° 0.2 mm 4 mps 761 mmHg 97%
    03:00 +21°C° 0.2 mm 4 mps 761 mmHg 97%
    04:00 +21°C° 0.2 mm 4 mps 761 mmHg 97%
    05:00 +21°C° 0.2 mm 4 mps 761 mmHg 97%
    06:00 +21°C° 0.2 mm 4 mps 761 mmHg 97%
    07:00 +22°C° 0.2 mm 4 mps 761 mmHg 97%
    08:00 +23°C° 0.3 mm 4 mps 762 mmHg 94%
    09:00 +23°C° 0.3 mm 5 mps 762 mmHg 91%
    10:00 +25°C° 0.3 mm 5 mps 762 mmHg 88%
    11:00 +25°C° 0.3 mm 5 mps 762 mmHg 88%
    12:00 +25°C° 0.3 mm 5 mps 762 mmHg 88%
    13:00 +25°C° 0.3 mm 5 mps 761 mmHg 89%
    14:00 +25°C° 0.3 mm 5 mps 761 mmHg 90%
    15:00 +23°C° 0.3 mm 5 mps 761 mmHg 92%
    16:00 +23°C° 0.3 mm 5 mps 760 mmHg 93%
    17:00 +22°C° 0.2 mm 5 mps 761 mmHg 94%
    18:00 +22°C° 0.2 mm 5 mps 761 mmHg 95%
    19:00 +22°C° 0.2 mm 5 mps 761 mmHg 95%
    20:00 +22°C° 0.1 mm 5 mps 762 mmHg 95%
    21:00 +21°C° 0.1 mm 5 mps 762 mmHg 95%
    22:00 +21°C° 0.1 mm 5 mps 763 mmHg 95%
    23:00 +21°C° 0.1 mm 5 mps 762 mmHg 95%

    Day after tomorrow, 19 July, Thursday

    Time Temperature Precipitation Wind Pressure Humidity
    00:00 +21°C° 0.1 mm 5 mps 762 mmHg 95%
    01:00 +21°C° 0.1 mm 5 mps 762 mmHg 95%
    02:00 +21°C° 0 mm 5 mps 762 mmHg 95%
    03:00 +20°C° 0 mm 5 mps 761 mmHg 95%
    04:00 +20°C° 0 mm 5 mps 761 mmHg 96%
    05:00 +20°C° 0 mm 4 mps 761 mmHg 96%
    06:00 +20°C° 0 mm 4 mps 761 mmHg 96%
    07:00 +19°C° 0 mm 4 mps 762 mmHg 97%
    08:00 +21°C° 0 mm 4 mps 762 mmHg 91%
    09:00 +22°C° 0 mm 5 mps 762 mmHg 86%
    10:00 +23°C° 0 mm 5 mps 763 mmHg 80%
    11:00 +25°C° 0 mm 5 mps 762 mmHg 76%
    12:00 +26°C° 0 mm 5 mps 762 mmHg 71%
    13:00 +27°C° 0 mm 5 mps 761 mmHg 67%
    14:00 +27°C° 0 mm 5 mps 761 mmHg 67%
    15:00 +27°C° 0 mm 4 mps 760 mmHg 68%
    16:00 +27°C° 0 mm 4 mps 760 mmHg 69%
    17:00 +25°C° 0 mm 4 mps 760 mmHg 76%
    18:00 +23°C° 0 mm 4 mps 760 mmHg 84%
    19:00 +21°C° 0 mm 3 mps 761 mmHg 92%
    20:00 +20°C° 0 mm 3 mps 761 mmHg 93%
    21:00 +20°C° 0 mm 3 mps 762 mmHg 95%
    22:00 +20°C° 0 mm 3 mps 762 mmHg 96%
    23:00 +20°C° 0 mm 3 mps 762 mmHg 96%

    20 July, Friday

    Time Temperature Precipitation Wind Pressure Humidity
    00:00 +20°C° 0 mm 3 mps 762 mmHg 97%
    01:00 +20°C° 0 mm 2 mps 762 mmHg 97%
    02:00 +19°C° 0 mm 2 mps 762 mmHg 97%
    03:00 +19°C° 0 mm 2 mps 761 mmHg 97%
    04:00 +19°C° 0 mm 2 mps 761 mmHg 97%
    05:00 +19°C° 0 mm 2 mps 761 mmHg 97%
    06:00 +19°C° 0 mm 2 mps 761 mmHg 97%
    07:00 +19°C° 0 mm 2 mps 762 mmHg 97%
    08:00 +23°C° 0 mm 2 mps 762 mmHg 87%
    09:00 +25°C° 0 mm 2 mps 762 mmHg 76%
    10:00 +28°C° 0 mm 2 mps 762 mmHg 66%
    11:00 +29°C° 0 mm 2 mps 761 mmHg 63%
    12:00 +30°C° 0 mm 2 mps 761 mmHg 60%
    13:00 +31°C° 0 mm 3 mps 760 mmHg 58%
    14:00 +30°C° 0 mm 3 mps 760 mmHg 64%
    15:00 +28°C° 0 mm 3 mps 759 mmHg 69%
    16:00 +27°C° 0 mm 3 mps 759 mmHg 75%
    17:00 +26°C° 0 mm 2 mps 760 mmHg 82%
    18:00 +25°C° 0 mm 2 mps 760 mmHg 88%
    19:00 +24°C° 0 mm 2 mps 760 mmHg 95%
    20:00 +23°C° 0 mm 2 mps 761 mmHg 95%
    21:00 +23°C° 0 mm 1 mps 761 mmHg 96%
    22:00 +23°C° 0 mm 1 mps 762 mmHg 96%
    23:00 +23°C° 0 mm 1 mps 762 mmHg 97%

    21 July, Saturday

    Time Temperature Precipitation Wind Pressure Humidity
    00:00 +23°C° 0 mm 1 mps 762 mmHg 97%
    01:00 +22°C° 0 mm 1 mps 761 mmHg 97%
    02:00 +22°C° 0 mm 1 mps 761 mmHg 97%
    03:00 +22°C° 0 mm 1 mps 761 mmHg 96%
    04:00 +20°C° 0 mm 2 mps 761 mmHg 96%
    05:00 +20°C° 0 mm 2 mps 762 mmHg 94%
    06:00 +20°C° 0 mm 3 mps 762 mmHg 91%
    07:00 +19°C° 0 mm 3 mps 762 mmHg 89%
    08:00 +21°C° 0 mm 4 mps 763 mmHg 76%
    09:00 +23°C° 0 mm 4 mps 763 mmHg 63%
    10:00 +26°C° 0 mm 5 mps 763 mmHg 50%
    11:00 +27°C° 0 mm 5 mps 762 mmHg 49%
    12:00 +29°C° 0 mm 5 mps 762 mmHg 48%
    13:00 +30°C° 0 mm 5 mps 761 mmHg 47%
    14:00 +29°C° 0 mm 5 mps 761 mmHg 49%
    15:00 +29°C° 0 mm 5 mps 760 mmHg 50%
    16:00 +28°C° 0 mm 5 mps 760 mmHg 52%
    17:00 +26°C° 0 mm 5 mps 761 mmHg 59%
    18:00 +23°C° 0 mm 4 mps 761 mmHg 66%
    19:00 +20°C° 0 mm 4 mps 762 mmHg 74%
    20:00 +20°C° 0 mm 4 mps 762 mmHg 73%
    21:00 +19°C° 0 mm 3 mps 762 mmHg 73%
    22:00 +19°C° 0 mm 3 mps 762 mmHg 73%
    23:00 +19°C° 0 mm 3 mps 762 mmHg 74%

    22 July, Sunday

    Time Temperature Precipitation Wind Pressure Humidity
    00:00 +19°C° 0 mm 3 mps 762 mmHg 76%
    01:00 +18°C° 0 mm 3 mps 762 mmHg 77%
    02:00 +18°C° 0.1 mm 3 mps 762 mmHg 81%
    03:00 +18°C° 0.1 mm 3 mps 761 mmHg 86%
    04:00 +18°C° 0.1 mm 3 mps 761 mmHg 90%
    05:00 +19°C° 0 mm 3 mps 761 mmHg 92%
    06:00 +19°C° 0 mm 3 mps 762 mmHg 94%
    07:00 +19°C° 0 mm 4 mps 762 mmHg 96%
    08:00 +21°C° 0 mm 4 mps 762 mmHg 89%
    09:00 +23°C° 0 mm 4 mps 763 mmHg 81%
    10:00 +26°C° 0 mm 4 mps 763 mmHg 74%
    11:00 +27°C° 0 mm 4 mps 762 mmHg 71%
    12:00 +28°C° 0 mm 4 mps 762 mmHg 68%
    13:00 +29°C° 0 mm 4 mps 761 mmHg 66%
    14:00 +28°C° 0.1 mm 4 mps 761 mmHg 69%
    15:00 +27°C° 0.1 mm 4 mps 761 mmHg 72%
    16:00 +27°C° 0.1 mm 4 mps 760 mmHg 75%
    17:00 +25°C° 0.1 mm 4 mps 761 mmHg 82%
    18:00 +23°C° 0.1 mm 4 mps 761 mmHg 88%
    19:00 +22°C° 0.1 mm 4 mps 762 mmHg 95%
    20:00 +21°C° 0.1 mm 4 mps 762 mmHg 95%
    21:00 +21°C° 0.1 mm 4 mps 762 mmHg 96%
    22:00 +21°C° 0.1 mm 4 mps 763 mmHg 96%
    23:00 +21°C° 0.1 mm 4 mps 762 mmHg 96%
    Show more